Dades meteomassalio
Diari Summary for Gener 1, 2017 Units:  English    Metric   Both
« Previous Day
Next Day »
Diari Semanal Mensual Anual Personalitzat
  Maxima: Minima: Mijana:
Temperatura: 33.4 °F 30 °F 32.5 °F
Rosada: 32.5 °F 28.8 °F 31.3 °F
Humitat: 96 % 95 % 96 %
Velocitat del vent: 0 mph 0 mph 0 mph
Racha vent: 0 mph - -
Vent:- - North
Pressio: 30.6 in 30.3 in -
Pluja: 0.02 in    
Historical Graphs
 
 
Tabular Data for Gener 1, 2017
Time Temperature Dew Point Pressure Wind Wind Speed Wind Gust Humidity Rainfall Rate (Hourly) solar Conditions
00:00 33.1 °F 31.8 °F 30.6 in Calm     95 % 0 in 0.0 W/m2 RA
00:05 33.1 °F 32.2 °F 30.6 in Calm     96 % 0 in 0.0 W/m2 CLR
00:10 33.1 °F 31.8 °F 30.6 in Calm     95 % 0 in 0.0 W/m2 CLR
00:15 33.1 °F 31.6 °F 30.5 in Calm     95 % 0 in 0.0 W/m2 CLR
00:20 33.1 °F 31.8 °F 30.5 in Calm     95 % 0 in 0.0 W/m2 CLR
00:25 33.1 °F 32.2 °F 30.5 in Calm     96 % 0 in 0.0 W/m2 CLR
00:30 33.1 °F 32.2 °F 30.5 in Calm     96 % 0 in 0.0 W/m2 CLR
00:35 33.3 °F 32.2 °F 30.5 in Calm     96 % 0 in 0.0 W/m2 CLR
00:40 33.3 °F 32.2 °F 30.5 in Calm     96 % 0 in 0.0 W/m2 CLR
00:45 33.1 °F 32.2 °F 30.5 in Calm     96 % 0 in 0.0 W/m2 CLR
00:50 33.3 °F 32.2 °F 30.5 in Calm     96 % 0 in 0.0 W/m2 CLR
00:55 33.3 °F 32.2 °F 30.5 in Calm     96 % 0 in 0.0 W/m2 CLR
01:01 33.3 °F 32.2 °F 30.5 in Calm     96 % 0 in 0.0 W/m2 CLR
01:06 33.3 °F 32.2 °F 30.5 in Calm     96 % 0 in 0.0 W/m2 CLR
01:11 33.1 °F 32.2 °F 30.5 in Calm     96 % 0 in 0.0 W/m2 CLR
01:16 33.1 °F 31.8 °F 30.5 in Calm     95 % 0 in 0.0 W/m2 CLR
01:21 33.1 °F 31.8 °F 30.5 in Calm     95 % 0 in 0.0 W/m2 CLR
01:26 33.1 °F 31.6 °F 30.5 in Calm     95 % 0 in 0.0 W/m2 CLR
01:31 33.1 °F 31.6 °F 30.5 in Calm     95 % 0 in 0.0 W/m2 CLR
01:36 32.9 °F 31.6 °F 30.5 in Calm     95 % 0 in 0.0 W/m2 CLR
01:41 33.1 °F 31.6 °F 30.5 in Calm     95 % 0 in 0.0 W/m2 CLR
01:46 33.1 °F 31.6 °F 30.5 in Calm     95 % 0 in 0.0 W/m2 CLR
01:51 33.1 °F 31.6 °F 30.5 in Calm     95 % 0 in 0.0 W/m2 CLR
01:56 33.1 °F 31.6 °F 30.5 in Calm     95 % 0 in 0.0 W/m2 CLR
02:01 33.1 °F 32.2 °F 30.5 in Calm     96 % 0 in 0.0 W/m2 CLR
02:06 33.1 °F 32.2 °F 30.5 in Calm     96 % 0 in 0.0 W/m2 CLR
02:11 33.1 °F 32.2 °F 30.5 in Calm     96 % 0 in 0.0 W/m2 CLR
02:16 33.1 °F 32.2 °F 30.5 in Calm     96 % 0 in 0.0 W/m2 CLR
02:21 33.1 °F 32.2 °F 30.5 in Calm     96 % 0 in 0.0 W/m2 CLR
02:26 33.1 °F 32.2 °F 30.5 in Calm     96 % 0 in 0.0 W/m2 CLR
02:31 33.3 °F 32.2 °F 30.5 in Calm     96 % 0 in 0.0 W/m2 CLR
02:36 33.3 °F 32.2 °F 30.5 in Calm     96 % 0 in 0.0 W/m2 CLR
02:41 33.3 °F 32.2 °F 30.5 in Calm     96 % 0 in 0.0 W/m2 CLR
02:46 33.3 °F 32.2 °F 30.5 in Calm     96 % 0 in 0.0 W/m2 CLR
02:51 33.3 °F 32.2 °F 30.5 in Calm     96 % 0 in 0.0 W/m2 CLR
02:56 33.3 °F 32.2 °F 30.5 in Calm     96 % 0 in 0.0 W/m2 CLR
03:01 33.3 °F 32.2 °F 30.5 in Calm     96 % 0 in 0.0 W/m2 CLR
03:06 33.3 °F 32.2 °F 30.5 in Calm     96 % 0 in 0.0 W/m2 CLR
03:11 33.3 °F 32.2 °F 30.5 in Calm     96 % 0 in 0.0 W/m2 CLR
03:16 33.3 °F 32.2 °F 30.5 in Calm     96 % 0 in 0.0 W/m2 CLR
03:21 33.3 °F 32.2 °F 30.5 in Calm     96 % 0 in 0.0 W/m2 CLR
03:26 33.3 °F 32.4 °F 30.5 in Calm     96 % 0 in 0.0 W/m2 CLR
03:31 33.3 °F 32.4 °F 30.5 in Calm     96 % 0 in 0.0 W/m2 CLR
03:36 33.3 °F 32.4 °F 30.5 in Calm     96 % 0 in 0.0 W/m2 CLR
03:41 33.1 °F 32.2 °F 30.5 in Calm     96 % 0 in 0.0 W/m2 CLR
03:46 33.1 °F 32.2 °F 30.5 in Calm     96 % 0 in 0.0 W/m2 CLR
03:51 33.1 °F 31.6 °F 30.5 in Calm     95 % 0 in 0.0 W/m2 CLR
03:56 33.1 °F 31.8 °F 30.5 in Calm     95 % 0 in 0.0 W/m2 CLR
04:01 33.1 °F 32.2 °F 30.5 in Calm     96 % 0 in 0.0 W/m2 CLR
04:06 33.3 °F 32.2 °F 30.5 in Calm     96 % 0 in 0.0 W/m2 CLR
04:11 33.3 °F 32.2 °F 30.5 in Calm     96 % 0 in 0.0 W/m2 CLR
04:16 33.1 °F 32.2 °F 30.5 in Calm     96 % 0 in 0.0 W/m2 CLR
04:21 33.1 °F 32.2 °F 30.5 in Calm     96 % 0 in 0.0 W/m2 CLR
04:26 33.1 °F 31.8 °F 30.5 in Calm     95 % 0 in 0.0 W/m2 CLR
04:31 33.1 °F 31.6 °F 30.5 in Calm     95 % 0 in 0.0 W/m2 CLR
04:36 33.1 °F 31.6 °F 30.5 in Calm     95 % 0 in 0.0 W/m2 CLR
04:41 32.9 °F 31.6 °F 30.5 in Calm     95 % 0 in 0.0 W/m2 CLR
04:46 32.9 °F 31.6 °F 30.5 in Calm     95 % 0 in 0.0 W/m2 CLR
04:51 32.7 °F 31.5 °F 30.5 in Calm     95 % 0 in 0.0 W/m2 CLR
04:56 32.7 °F 31.6 °F 30.5 in Calm     96 % 0 in 0.0 W/m2 CLR
05:01 32.7 °F 31.6 °F 30.5 in Calm     96 % 0 in 0.0 W/m2 CLR
05:06 32.7 °F 31.6 °F 30.5 in Calm     96 % 0 in 0.0 W/m2 CLR
05:11 32.5 °F 31.5 °F 30.5 in Calm     96 % 0 in 0.0 W/m2 CLR
05:16 32.4 °F 31.1 °F 30.5 in Calm     95 % 0 in 0.0 W/m2 CLR
05:21 32.4 °F 31.1 °F 30.4 in Calm     95 % 0 in 0.0 W/m2 CLR
05:26 32.2 °F 30.9 °F 30.5 in Calm     95 % 0 in 0.0 W/m2 CLR
05:31 32.2 °F 30.9 °F 30.5 in Calm     95 % 0 in 0.0 W/m2 CLR
05:36 32.4 °F 30.9 °F 30.5 in Calm     95 % 0 in 0.0 W/m2 CLR
05:41 32.4 °F 30.9 °F 30.4 in Calm     95 % 0 in 0.0 W/m2 CLR
05:46 32.4 °F 30.9 °F 30.4 in Calm     95 % 0 in 0.0 W/m2 CLR
05:51 32.4 °F 31.1 °F 30.4 in Calm     95 % 0 in 0.0 W/m2 CLR
05:56 32.4 °F 31.1 °F 30.4 in Calm     95 % 0 in 0.0 W/m2 CLR
06:01 32.4 °F 31.1 °F 30.4 in Calm     95 % 0 in 0.0 W/m2 CLR
06:06 32.4 °F 30.9 °F 30.4 in Calm     95 % 0 in 0.0 W/m2 CLR
06:11 32.2 °F 30.9 °F 30.4 in Calm     95 % 0 in 0.0 W/m2 CLR
06:16 32.2 °F 31.1 °F 30.4 in Calm     96 % 0 in 0.0 W/m2 CLR
06:21 32 °F 30.9 °F 30.4 in Calm     96 % 0 in 0.0 W/m2 CLR
06:26 32 °F 30.9 °F 30.4 in Calm     96 % 0 in 0.0 W/m2 CLR
06:31 32 °F 30.9 °F 30.4 in Calm     96 % 0 in 0.0 W/m2 CLR
06:36 31.8 °F 30.9 °F 30.4 in Calm     96 % 0 in 0.0 W/m2 CLR
06:41 31.8 °F 30.9 °F 30.4 in Calm     96 % 0 in 0.0 W/m2 CLR
06:46 31.8 °F 30.6 °F 30.4 in Calm     95 % 0 in 0.0 W/m2 CLR
06:51 31.8 °F 30.6 °F 30.4 in Calm     95 % 0 in 0.0 W/m2 CLR
06:56 31.8 °F 30.6 °F 30.4 in Calm     95 % 0 in 0.0 W/m2 CLR
07:01 31.6 °F 30.4 °F 30.4 in Calm     95 % 0 in 0.0 W/m2 CLR
07:06 31.6 °F 30.4 °F 30.4 in Calm     95 % 0 in 0.0 W/m2 CLR
07:11 31.6 °F 30.4 °F 30.4 in Calm     95 % 0 in 0.0 W/m2 CLR
07:16 31.6 °F 30.4 °F 30.4 in Calm     95 % 0 in 0.0 W/m2 CLR
07:21 31.8 °F 30.6 °F 30.4 in Calm     95 % 0 in 0.0 W/m2 CLR
07:26 31.8 °F 30.6 °F 30.4 in Calm     95 % 0 in 0.0 W/m2 CLR
07:31 31.8 °F 30.6 °F 30.4 in Calm     95 % 0 in 0.0 W/m2 CLR
07:36 31.8 °F 30.6 °F 30.4 in Calm     95 % 0 in 0.0 W/m2 CLR
07:41 31.8 °F 30.6 °F 30.4 in Calm     95 % 0 in 0.0 W/m2 CLR
07:46 31.5 °F 30.6 °F 30.4 in Calm     96 % 0 in 0.0 W/m2 CLR
07:51 31.3 °F 29.8 °F 30.4 in Calm     95 % 0 in 0.0 W/m2 CLR
07:56 31.1 °F 29.8 °F 30.4 in Calm     95 % 0 in 0.0 W/m2 CLR
08:01 31.1 °F 29.8 °F 30.4 in Calm     95 % 0 in 0.0 W/m2 CLR
08:06 31.1 °F 29.8 °F 30.4 in Calm     95 % 0 in 0.0 W/m2 CLR
08:11 31.1 °F 29.8 °F 30.4 in Calm     95 % 0 in 0.0 W/m2 CLR
08:16 31.1 °F 29.8 °F 30.4 in Calm     95 % 0 in 0.0 W/m2 CLR
08:21 30.9 °F 30 °F 30.4 in Calm     96 % 0 in 0.0 W/m2 CLR
08:26 30.9 °F 29.8 °F 30.4 in Calm     96 % 0 in 0.0 W/m2 OVC
08:31 30.9 °F 29.8 °F 30.4 in Calm     96 % 0 in 0.0 W/m2 OVC
08:36 30.7 °F 29.5 °F 30.4 in Calm     95 % 0 in 5.0 W/m2 OVC
08:41 30.7 °F 29.5 °F 30.4 in Calm     95 % 0 in 5.0 W/m2 OVC
08:46 30.7 °F 29.5 °F 30.4 in Calm     95 % 0 in 7.0 W/m2 BKN
08:51 30.7 °F 29.5 °F 30.4 in Calm     95 % 0 in 9.0 W/m2 BKN
08:56 30.7 °F 29.5 °F 30.4 in Calm     95 % 0 in 11.0 W/m2 BKN
09:01 30.7 °F 29.5 °F 30.4 in Calm     95 % 0 in 12.0 W/m2 BKN
09:06 30.7 °F 29.5 °F 30.4 in Calm     95 % 0 in 16.0 W/m2 BKN
09:12 30.6 °F 29.3 °F 30.4 in Calm     95 % 0 in 18.0 W/m2 BKN
09:17 30.6 °F 29.1 °F 30.4 in Calm     95 % 0 in 19.0 W/m2 BKN
09:22 30.4 °F 29.1 °F 30.4 in Calm     95 % 0 in 23.0 W/m2 BKN
09:27 30.6 °F 29.1 °F 30.4 in Calm     95 % 0 in 25.0 W/m2 BKN
09:32 30.4 °F 29.1 °F 30.4 in Calm     95 % 0 in 28.0 W/m2 BKN
09:37 30.4 °F 29.1 °F 30.4 in Calm     95 % 0 in 33.0 W/m2 BKN
09:42 30.2 °F 28.9 °F 30.4 in Calm     95 % 0 in 35.0 W/m2 BKN
09:47 30.2 °F 28.9 °F 30.4 in Calm     95 % 0 in 35.0 W/m2 BKN
09:52 30.2 °F 28.9 °F 30.4 in Calm     95 % 0 in 39.0 W/m2 BKN
09:57 30.2 °F 28.9 °F 30.4 in Calm     95 % 0 in 42.0 W/m2 BKN
10:02 30 °F 28.8 °F 30.4 in Calm     95 % 0 in 46.0 W/m2 BKN
10:07 30 °F 28.8 °F 30.4 in Calm     95 % 0 in 49.0 W/m2 BKN
10:12 30 °F 28.8 °F 30.4 in Calm     95 % 0 in 60.0 W/m2 BKN
10:17 30 °F 28.8 °F 30.4 in Calm     95 % 0 in 70.0 W/m2 BKN
10:22 30 °F 28.8 °F 30.4 in Calm     95 % 0 in 72.0 W/m2 BKN
10:27 30 °F 28.8 °F 30.4 in Calm     95 % 0 in 76.0 W/m2 BKN
10:32 30.2 °F 28.9 °F 30.4 in Calm     95 % 0 in 74.0 W/m2 BKN
10:37 30 °F 28.8 °F 30.4 in Calm     95 % 0 in 76.0 W/m2 BKN
10:42 30 °F 28.8 °F 30.4 in Calm     95 % 0 in 70.0 W/m2 BKN
10:47 30.2 °F 28.9 °F 30.4 in Calm     95 % 0 in 56.0 W/m2 BKN
10:52 30 °F 28.8 °F 30.4 in Calm     95 % 0 in 98.0 W/m2 BKN
10:57 30.2 °F 28.9 °F 30.4 in Calm     95 % 0 in 105.0 W/m2 BKN
11:02 30.2 °F 28.9 °F 30.4 in Calm     95 % 0 in 109.0 W/m2 BKN
11:07 30.4 °F 29.1 °F 30.4 in Calm     95 % 0 in 104.0 W/m2 BKN
11:12 30.6 °F 29.3 °F 30.4 in Calm     95 % 0 in 105.0 W/m2 BKN
11:17 30.7 °F 29.5 °F 30.4 in Calm     95 % 0 in 98.0 W/m2 BKN
11:22 30.9 °F 29.7 °F 30.4 in Calm     95 % 0 in 100.0 W/m2 BKN
11:27 30.9 °F 29.7 °F 30.4 in Calm     95 % 0 in 105.0 W/m2 BKN
11:32 31.1 °F 29.8 °F 30.4 in Calm     95 % 0.01 in 93.0 W/m2 RA
11:37 31.3 °F 29.8 °F 30.4 in Calm     95 % 0.01 in 97.0 W/m2 BKN
11:42 31.3 °F 29.8 °F 30.4 in Calm     95 % 0.01 in 105.0 W/m2 BKN
11:47 31.3 °F 29.8 °F 30.4 in Calm     95 % 0.01 in 105.0 W/m2 BKN
11:52 31.5 °F 30 °F 30.4 in Calm     95 % 0.01 in 107.0 W/m2 BKN
11:57 31.5 °F 30.2 °F 30.4 in Calm     95 % 0.01 in 93.0 W/m2 BKN
12:02 31.6 °F 30.4 °F 30.4 in Calm     95 % 0.01 in 91.0 W/m2 BKN
12:07 31.8 °F 30.6 °F 30.4 in Calm     95 % 0.01 in 95.0 W/m2 BKN
12:12 32 °F 30.7 °F 30.4 in Calm     95 % 0.01 in 100.0 W/m2 BKN
12:17 32.2 °F 31.3 °F 30.4 in Calm     96 % 0.01 in 91.0 W/m2 BKN
12:22 32.2 °F 31.1 °F 30.4 in Calm     96 % 0.01 in 93.0 W/m2 BKN
12:27 32.2 °F 31.1 °F 30.4 in Calm     96 % 0.01 in 93.0 W/m2 BKN
12:32 32.2 °F 31.1 °F 30.4 in Calm     96 % 0 in 100.0 W/m2 BKN
12:37 32.2 °F 31.3 °F 30.4 in Calm     96 % 0 in 105.0 W/m2 BKN
12:42 32.4 °F 31.3 °F 30.4 in Calm     96 % 0 in 93.0 W/m2 BKN
12:47 32.4 °F 31.3 °F 30.4 in Calm     96 % 0 in 97.0 W/m2 BKN
12:52 32.4 °F 31.3 °F 30.4 in Calm     96 % 0 in 98.0 W/m2 BKN
12:57 32.2 °F 31.3 °F 30.4 in Calm     96 % 0 in 104.0 W/m2 BKN
13:02 32.2 °F 31.3 °F 30.4 in Calm     96 % 0 in 105.0 W/m2 BKN
13:07 32.4 °F 31.1 °F 30.4 in Calm     95 % 0 in 100.0 W/m2 BKN
13:12 32.4 °F 31.1 °F 30.4 in Calm     95 % 0 in 93.0 W/m2 BKN
13:17 32.5 °F 31.3 °F 30.4 in Calm     95 % 0 in 90.0 W/m2 BKN
13:22 32.5 °F 31.3 °F 30.4 in Calm     95 % 0 in 88.0 W/m2 BKN
13:27 32.5 °F 31.3 °F 30.4 in Calm     95 % 0 in 88.0 W/m2 BKN
13:32 32.5 °F 31.3 °F 30.4 in Calm     95 % 0 in 91.0 W/m2 BKN
13:37 32.5 °F 31.3 °F 30.4 in Calm     95 % 0 in 91.0 W/m2 BKN
13:42 32.5 °F 31.3 °F 30.4 in Calm     95 % 0 in 98.0 W/m2 BKN
13:47 32.5 °F 31.6 °F 30.4 in Calm     96 % 0 in 100.0 W/m2 BKN
13:52 32.5 °F 31.6 °F 30.4 in Calm     96 % 0 in 91.0 W/m2 BKN
13:58 32.7 °F 31.6 °F 30.4 in Calm     96 % 0 in 97.0 W/m2 BKN
14:03 32.7 °F 31.8 °F 30.4 in Calm     96 % 0 in 84.0 W/m2 BKN
14:08 32.9 °F 31.6 °F 30.4 in Calm     95 % 0 in 88.0 W/m2 BKN
14:13 32.9 °F 31.8 °F 30.4 in Calm     96 % 0 in 81.0 W/m2 BKN
14:18 33.1 °F 31.6 °F 30.4 in Calm     95 % 0 in 81.0 W/m2 BKN
14:23 33.1 °F 31.8 °F 30.3 in Calm     95 % 0 in 74.0 W/m2 BKN
14:28 33.1 °F 32.2 °F 30.3 in Calm     96 % 0 in 70.0 W/m2 BKN
14:33 33.3 °F 32.2 °F 30.3 in Calm     96 % 0 in 67.0 W/m2 BKN
14:38 33.3 °F 32.2 °F 30.3 in Calm     96 % 0 in 69.0 W/m2 BKN
14:43 33.3 °F 32.2 °F 30.3 in Calm     96 % 0 in 69.0 W/m2 BKN
14:48 33.3 °F 32.4 °F 30.3 in Calm     96 % 0 in 58.0 W/m2 BKN
14:53 33.3 °F 32.4 °F 30.3 in Calm     96 % 0 in 65.0 W/m2 BKN
14:58 33.4 °F 32.4 °F 30.3 in Calm     96 % 0 in 63.0 W/m2 BKN
15:03 33.4 °F 32.4 °F 30.3 in Calm     96 % 0 in 58.0 W/m2 BKN
15:08 33.4 °F 32.4 °F 30.3 in Calm     96 % 0 in 56.0 W/m2 BKN
15:13 33.4 °F 32.5 °F 30.3 in Calm     96 % 0 in 53.0 W/m2 BKN
15:18 33.4 °F 32.5 °F 30.3 in Calm     96 % 0 in 51.0 W/m2 BKN
15:23 33.4 °F 32.5 °F 30.3 in Calm     96 % 0 in 51.0 W/m2 BKN
15:28 33.4 °F 32.4 °F 30.3 in Calm     96 % 0 in 46.0 W/m2 BKN
15:33 33.4 °F 32.4 °F 30.3 in Calm     96 % 0 in 42.0 W/m2 BKN
15:38 33.4 °F 32.4 °F 30.3 in Calm     96 % 0 in 44.0 W/m2 BKN
15:43 33.4 °F 32.5 °F 30.3 in Calm     96 % 0 in 42.0 W/m2 BKN
15:48 33.4 °F 32.5 °F 30.3 in Calm     96 % 0 in 44.0 W/m2 BKN
15:53 33.4 °F 32.5 °F 30.3 in Calm     96 % 0 in 39.0 W/m2 BKN
15:58 33.4 °F 32.4 °F 30.3 in Calm     96 % 0 in 37.0 W/m2 BKN
16:03 33.4 °F 32.4 °F 30.3 in Calm     96 % 0 in 40.0 W/m2 BKN
16:08 33.3 °F 32.4 °F 30.3 in Calm     96 % 0 in 35.0 W/m2 BKN
16:13 33.3 °F 32.4 °F 30.3 in Calm     96 % 0 in 33.0 W/m2 BKN
16:18 33.3 °F 32.4 °F 30.3 in Calm     96 % 0 in 32.0 W/m2 BKN
16:23 33.3 °F 32.4 °F 30.3 in Calm     96 % 0 in 28.0 W/m2 BKN
16:28 33.4 °F 32.4 °F 30.3 in Calm     96 % 0 in 21.0 W/m2 BKN
16:33 33.4 °F 32.4 °F 30.3 in Calm     96 % 0 in 19.0 W/m2 BKN
16:38 33.3 °F 32.4 °F 30.3 in Calm     96 % 0 in 19.0 W/m2 BKN
16:43 33.3 °F 32.2 °F 30.3 in Calm     96 % 0 in 18.0 W/m2 BKN
16:48 33.3 °F 32.4 °F 30.3 in Calm     96 % 0 in 16.0 W/m2 SCT
16:53 33.4 °F 32.4 °F 30.3 in Calm     96 % 0 in 12.0 W/m2 CLR
16:58 33.4 °F 32.4 °F 30.3 in Calm     96 % 0 in 11.0 W/m2 OVC
17:03 33.4 °F 32.4 °F 30.3 in Calm     96 % 0 in 9.0 W/m2 OVC
17:08 33.3 °F 32.4 °F 30.3 in Calm     96 % 0 in 9.0 W/m2 OVC
17:13 33.1 °F 32.2 °F 30.3 in Calm     96 % 0 in 7.0 W/m2 OVC
17:18 33.1 °F 32.2 °F 30.3 in Calm     96 % 0 in 5.0 W/m2 OVC
17:23 33.1 °F 32.2 °F 30.3 in Calm     96 % 0 in 5.0 W/m2 OVC
17:28 33.1 °F 31.8 °F 30.3 in Calm     95 % 0 in 0.0 W/m2 OVC
17:33 33.1 °F 31.8 °F 30.3 in Calm     95 % 0 in 0.0 W/m2 OVC
17:38 33.1 °F 31.8 °F 30.3 in Calm     95 % 0 in 0.0 W/m2 OVC
17:43 33.1 °F 32.2 °F 30.3 in Calm     96 % 0 in 0.0 W/m2 CLR
17:48 33.1 °F 32.2 °F 30.3 in Calm     96 % 0 in 0.0 W/m2 CLR
17:53 33.1 °F 32.2 °F 30.3 in Calm     96 % 0 in 0.0 W/m2 CLR
17:58 33.1 °F 31.6 °F 30.3 in Calm     95 % 0 in 0.0 W/m2 CLR
18:03 33.1 °F 31.6 °F 30.3 in Calm     95 % 0 in 0.0 W/m2 CLR
18:08 32.9 °F 31.6 °F 30.3 in Calm     95 % 0 in 0.0 W/m2 CLR
18:13 32.9 °F 31.6 °F 30.3 in Calm     95 % 0 in 0.0 W/m2 CLR
18:18 32.9 °F 31.6 °F 30.3 in Calm     95 % 0 in 0.0 W/m2 CLR
18:23 32.9 °F 31.6 °F 30.3 in Calm     95 % 0 in 0.0 W/m2 CLR
18:28 32.9 °F 31.6 °F 30.3 in Calm     95 % 0 in 0.0 W/m2 CLR
18:33 32.7 °F 31.5 °F 30.3 in Calm     95 % 0 in 0.0 W/m2 CLR
18:38 32.7 °F 31.6 °F 30.3 in Calm     96 % 0 in 0.0 W/m2 CLR
18:43 32.5 °F 31.6 °F 30.3 in Calm     96 % 0 in 0.0 W/m2 CLR
18:48 32.7 °F 31.6 °F 30.3 in Calm     96 % 0 in 0.0 W/m2 CLR
18:53 32.7 °F 31.6 °F 30.3 in Calm     96 % 0 in 0.0 W/m2 CLR
18:58 32.7 °F 31.8 °F 30.3 in Calm     96 % 0 in 0.0 W/m2 CLR
19:03 32.7 °F 31.5 °F 30.3 in Calm     95 % 0 in 0.0 W/m2 CLR
19:08 32.7 °F 31.8 °F 30.3 in Calm     96 % 0 in 0.0 W/m2 CLR
19:13 32.7 °F 31.5 °F 30.3 in Calm     95 % 0 in 0.0 W/m2 CLR
19:18 32.7 °F 31.8 °F 30.3 in Calm     96 % 0 in 0.0 W/m2 CLR
19:23 32.7 °F 31.8 °F 30.3 in Calm     96 % 0 in 0.0 W/m2 CLR
19:28 32.7 °F 31.6 °F 30.3 in Calm     96 % 0 in 0.0 W/m2 CLR
19:33 32.7 °F 31.8 °F 30.3 in Calm     96 % 0 in 0.0 W/m2 CLR
19:38 32.7 °F 31.8 °F 30.3 in Calm     96 % 0 in 0.0 W/m2 CLR
19:43 32.7 °F 31.8 °F 30.3 in Calm     96 % 0 in 0.0 W/m2 CLR
19:48 32.9 °F 31.8 °F 30.3 in Calm     96 % 0 in 0.0 W/m2 CLR
19:54 32.9 °F 31.8 °F 30.3 in Calm     96 % 0 in 0.0 W/m2 CLR
19:59 32.9 °F 31.8 °F 30.3 in Calm     96 % 0 in 0.0 W/m2 CLR
20:04 33.1 °F 32 °F 30.3 in Calm     96 % 0 in 0.0 W/m2 CLR
20:09 33.1 °F 32 °F 30.3 in Calm     96 % 0 in 0.0 W/m2 CLR
20:14 32.9 °F 31.8 °F 30.3 in Calm     96 % 0 in 0.0 W/m2 CLR
20:19 32.9 °F 31.8 °F 30.3 in Calm     96 % 0 in 0.0 W/m2 CLR
20:24 32.9 °F 31.8 °F 30.3 in Calm     96 % 0 in 0.0 W/m2 CLR
20:29 33.1 °F 32 °F 30.3 in Calm     96 % 0 in 0.0 W/m2 CLR
20:34 33.1 °F 32 °F 30.3 in Calm     96 % 0 in 0.0 W/m2 CLR
20:39 33.1 °F 31.8 °F 30.3 in Calm     95 % 0 in 0.0 W/m2 CLR
20:44 33.1 °F 32 °F 30.3 in Calm     96 % 0 in 0.0 W/m2 CLR
20:49 33.1 °F 32.2 °F 30.3 in Calm     96 % 0 in 0.0 W/m2 CLR
20:54 33.3 °F 32.2 °F 30.3 in Calm     96 % 0 in 0.0 W/m2 CLR
20:59 33.3 °F 32.2 °F 30.3 in Calm     96 % 0 in 0.0 W/m2 CLR
21:04 33.3 °F 32.2 °F 30.3 in Calm     96 % 0 in 0.0 W/m2 CLR
21:09 33.1 °F 32.2 °F 30.3 in Calm     96 % 0 in 0.0 W/m2 CLR
21:14 33.3 °F 32.2 °F 30.3 in Calm     96 % 0 in 0.0 W/m2 CLR
21:19 33.1 °F 32.2 °F 30.3 in Calm     96 % 0 in 0.0 W/m2 CLR
21:24 33.1 °F 32.2 °F 30.3 in Calm     96 % 0 in 0.0 W/m2 CLR
21:29 33.1 °F 32 °F 30.3 in Calm     96 % 0 in 0.0 W/m2 CLR
21:34 33.1 °F 32 °F 30.3 in Calm     96 % 0 in 0.0 W/m2 CLR
21:39 32.9 °F 31.8 °F 30.3 in Calm     96 % 0 in 0.0 W/m2 CLR
21:44 33.1 °F 32 °F 30.3 in Calm     96 % 0 in 0.0 W/m2 CLR
21:49 33.1 °F 32 °F 30.3 in Calm     96 % 0 in 0.0 W/m2 CLR
21:54 33.1 °F 31.8 °F 30.3 in Calm     95 % 0 in 0.0 W/m2 CLR
21:59 33.1 °F 32 °F 30.3 in Calm     96 % 0 in 0.0 W/m2 CLR
22:04 33.1 °F 32.2 °F 30.3 in Calm     96 % 0 in 0.0 W/m2 CLR
22:09 33.1 °F 32 °F 30.3 in Calm     96 % 0 in 0.0 W/m2 CLR
22:14 33.1 °F 31.8 °F 30.3 in Calm     95 % 0 in 0.0 W/m2 CLR
22:19 33.1 °F 32 °F 30.3 in Calm     96 % 0 in 0.0 W/m2 CLR
22:24 32.9 °F 31.8 °F 30.3 in Calm     96 % 0 in 0.0 W/m2 CLR
22:29 32.9 °F 31.8 °F 30.3 in Calm     96 % 0 in 0.0 W/m2 CLR
22:34 32.9 °F 31.8 °F 30.3 in Calm     96 % 0 in 0.0 W/m2 CLR
22:39 32.9 °F 31.8 °F 30.3 in Calm     96 % 0 in 0.0 W/m2 CLR
22:44 32.7 °F 31.8 °F 30.3 in Calm     96 % 0 in 0.0 W/m2 CLR
22:49 32.7 °F 31.8 °F 30.3 in Calm     96 % 0 in 0.0 W/m2 CLR
22:54 32.7 °F 31.8 °F 30.3 in Calm     96 % 0.01 in 0.0 W/m2 RA
22:59 32.7 °F 31.8 °F 30.3 in Calm     96 % 0.01 in 0.0 W/m2 CLR
23:04 32.7 °F 31.6 °F 30.3 in Calm     96 % 0.01 in 0.0 W/m2 CLR
23:09 32.5 °F 31.3 °F 30.3 in Calm     95 % 0.01 in 0.0 W/m2 CLR
23:14 32.5 °F 31.3 °F 30.3 in Calm     95 % 0.01 in 0.0 W/m2 CLR
23:19 32.5 °F 31.3 °F 30.3 in Calm     95 % 0.01 in 0.0 W/m2 CLR
23:24 32.5 °F 31.3 °F 30.3 in Calm     95 % 0.01 in 0.0 W/m2 CLR
23:29 32.5 °F 31.3 °F 30.3 in Calm     95 % 0.01 in 0.0 W/m2 CLR
23:34 32.5 °F 31.3 °F 30.3 in Calm     95 % 0.01 in 0.0 W/m2 CLR
23:39 32.4 °F 31.1 °F 30.3 in Calm     95 % 0.01 in 0.0 W/m2 CLR
23:44 32.5 °F 31.3 °F 30.3 in Calm     95 % 0.01 in 0.0 W/m2 CLR
23:49 32.5 °F 31.3 °F 30.3 in Calm     95 % 0.01 in 0.0 W/m2 CLR
23:54 32.5 °F 31.3 °F 30.3 in Calm     95 % 0 in 0.0 W/m2 CLR
23:59 32.5 °F 31.3 °F 30.3 in Calm     95 % 0 in 0.0 W/m2 CLR
Lo Temps de Massalio
Compliments of Weather Underground - 1.25 mb